| time (UTC) | temp F | wind direction | speed MPH | gust MPH | rain 1hr in | rain 24hr in | rain mn in | humidity % | barometer mb |
| 20260507054613 | 51 | 278 | 0.0 | 0.0 | 0.00 | 0.21 | 0.00 | 85 | 1008.4 |
| 20260507053106 | 52 | 275 | 0.0 | 0.0 | 0.00 | 0.21 | 0.00 | 85 | 1008.4 |
| 20260507051558 | 52 | 271 | 0.0 | 0.0 | 0.00 | 0.21 | 0.00 | 85 | 1008.3 |
| 20260507050056 | 53 | 264 | 0.0 | 0.0 | 0.00 | 0.21 | 0.00 | 86 | 1007.9 |
| 20260507044556 | 53 | 299 | 0.0 | 0.0 | 0.00 | 0.21 | 0.00 | 86 | 1008.0 |
| 20260507043049 | 54 | 279 | 0.0 | 0.0 | 0.00 | 0.21 | 0.00 | 87 | 1008.3 |
| 20260507041558 | 54 | 292 | 0.0 | 0.0 | 0.00 | 0.21 | 0.00 | 88 | 1008.1 |
| 20260507040043 | 55 | 294 | 0.0 | 0.0 | 0.00 | 0.21 | 0.00 | 90 | 1007.9 |
| 20260507034538 | 56 | 299 | 0.0 | 0.0 | 0.00 | 0.21 | 0.21 | 91 | 1007.6 |
| 20260507033038 | 57 | 291 | 0.0 | 0.0 | 0.00 | 0.21 | 0.21 | 92 | 1007.4 |
| 20260507031538 | 58 | 284 | 0.0 | 0.0 | 0.00 | 0.21 | 0.21 | 93 | 1007.7 |
| 20260507030031 | 59 | 283 | 0.0 | 0.0 | 0.00 | 0.21 | 0.21 | 93 | 1007.1 |
| 20260507024534 | 59 | 306 | 0.0 | 0.0 | 0.00 | 0.21 | 0.21 | 93 | 1006.9 |
| 20260507023029 | 59 | 259 | 0.0 | 0.0 | 0.00 | 0.21 | 0.21 | 93 | 1006.6 |
| 20260507021534 | 59 | 211 | 0.0 | 0.0 | 0.00 | 0.21 | 0.21 | 93 | 1006.7 |
| 20260507020027 | 59 | 298 | 0.0 | 0.0 | 0.00 | 0.21 | 0.21 | 93 | 1006.9 |
| 20260507014529 | 59 | 296 | 0.0 | 0.0 | 0.00 | 0.21 | 0.21 | 93 | 1007.0 |
| 20260507013025 | 59 | 355 | 0.0 | 0.0 | 0.00 | 0.21 | 0.21 | 93 | 1007.1 |
| 20260507011525 | 60 | 207 | 0.0 | 0.0 | 0.00 | 0.21 | 0.21 | 93 | 1007.1 |
| 20260507010031 | 59 | 257 | 0.0 | 0.0 | 0.00 | 0.21 | 0.21 | 93 | 1007.1 |
| 20260507004523 | 60 | 300 | 0.0 | 0.0 | 0.01 | 0.21 | 0.21 | 93 | 1007.0 |
| 20260507003022 | 60 | 290 | 0.0 | 0.0 | 0.02 | 0.21 | 0.21 | 93 | 1006.8 |
| 20260507001522 | 60 | 296 | 0.0 | 0.0 | 0.03 | 0.21 | 0.21 | 93 | 1006.9 |
| 20260507000026 | 60 | 227 | 0.0 | 0.0 | 0.03 | 0.21 | 0.21 | 93 | 1006.8 |
| 20260506234520 | 60 | 272 | 0.0 | 0.0 | 0.02 | 0.20 | 0.20 | 92 | 1006.9 |
| 20260506233020 | 60 | 182 | 0.0 | 0.0 | 0.02 | 0.19 | 0.19 | 92 | 1006.8 |
| 20260506231520 | 60 | 213 | 0.0 | 0.0 | 0.01 | 0.18 | 0.18 | 92 | 1007.1 |
| 20260506230019 | 60 | 148 | 0.0 | 0.0 | 0.02 | 0.18 | 0.18 | 92 | 1007.0 |
| 20260506224516 | 60 | 179 | 0.0 | 0.0 | 0.02 | 0.18 | 0.18 | 92 | 1007.1 |
| 20260506223014 | 60 | 275 | 0.0 | 0.0 | 0.03 | 0.17 | 0.17 | 92 | 1007.2 |
| 20260506221513 | 61 | 317 | 0.0 | 0.0 | 0.03 | 0.17 | 0.17 | 91 | 1007.2 |
| 20260506220012 | 61 | 165 | 0.0 | 0.0 | 0.03 | 0.16 | 0.16 | 91 | 1007.5 |
| 20260506214510 | 61 | 229 | 0.0 | 0.0 | 0.05 | 0.16 | 0.16 | 91 | 1007.6 |
| 20260506213010 | 61 | 112 | 0.0 | 0.0 | 0.04 | 0.14 | 0.14 | 91 | 1007.7 |
| 20260506211507 | 62 | 182 | 0.0 | 0.0 | 0.06 | 0.14 | 0.14 | 90 | 1007.8 |
| 20260506210006 | 62 | 178 | 0.0 | 0.0 | 0.06 | 0.13 | 0.13 | 90 | 1008.0 |
| 20260506204509 | 62 | 161 | 0.0 | 0.0 | 0.05 | 0.11 | 0.11 | 90 | 1008.0 |
| 20260506203004 | 63 | 325 | 0.0 | 0.0 | 0.04 | 0.10 | 0.10 | 90 | 1008.1 |
| 20260506201507 | 63 | 236 | 0.0 | 0.0 | 0.03 | 0.08 | 0.08 | 89 | 1008.1 |
| 20260506200004 | 64 | 144 | 0.0 | 0.0 | 0.03 | 0.07 | 0.07 | 89 | 1007.9 |
| 20260506194502 | 64 | 134 | 0.0 | 0.0 | 0.04 | 0.06 | 0.06 | 88 | 1008.0 |
| 20260506193001 | 64 | 130 | 0.0 | 0.0 | 0.06 | 0.06 | 0.06 | 86 | 1007.9 |
| 20260506191605 | 64 | 281 | 0.0 | 0.0 | 0.05 | 0.05 | 0.05 | 85 | 1008.3 |
| 20260506190059 | 65 | 282 | 0.0 | 0.0 | 0.04 | 0.04 | 0.04 | 82 | 1008.4 |
| 20260506184600 | 67 | 289 | 0.0 | 0.0 | 0.03 | 0.03 | 0.03 | 78 | 1008.5 |
| 20260506183103 | 69 | 334 | 0.0 | 0.0 | 0.00 | 0.00 | 0.00 | 72 | 1008.1 |
| 20260506181605 | 71 | 246 | 0.0 | 0.0 | 0.00 | 0.00 | 0.00 | 65 | 1008.2 |
| 20260506180055 | 73 | 240 | 0.0 | 0.0 | 0.00 | 0.00 | 0.00 | 57 | 1008.0 |
| 20260506174553 | 74 | 5 | 0.0 | 0.0 | 0.00 | 0.00 | 0.00 | 56 | 1008.0 |
| 20260506173119 | 74 | 243 | 0.0 | 0.0 | 0.00 | 0.00 | 0.00 | 56 | 1008.2 |
| 20260506171554 | 74 | 5 | 0.0 | 0.0 | 0.00 | 0.00 | 0.00 | 56 | 1008.5 |
| 20260506170103 | 74 | 301 | 0.0 | 0.0 | 0.00 | 0.00 | 0.00 | 59 | 1008.4 |
| 20260506164545 | 73 | 144 | 0.0 | 0.0 | 0.00 | 0.00 | 0.00 | 61 | 1008.7 |
| 20260506163053 | 73 | 207 | 0.0 | 0.0 | 0.00 | 0.00 | 0.00 | 60 | 1009.1 |
| 20260506161541 | 72 | 263 | 0.0 | 0.0 | 0.00 | 0.00 | 0.00 | 61 | 1009.3 |
| 20260506160042 | 72 | 280 | 0.0 | 0.0 | 0.00 | 0.00 | 0.00 | 61 | 1009.6 |
| 20260506154542 | 71 | 300 | 0.0 | 0.0 | 0.00 | 0.00 | 0.00 | 64 | 1010.1 |
| 20260506153037 | 71 | 199 | 0.0 | 0.0 | 0.00 | 0.00 | 0.00 | 63 | 1010.3 |
| 20260506151534 | 71 | 320 | 0.0 | 0.0 | 0.00 | 0.00 | 0.00 | 64 | 1010.2 |
| 20260506150032 | 70 | 242 | 0.0 | 0.0 | 0.00 | 0.00 | 0.00 | 65 | 1010.4 |
| 20260506144539 | 70 | 173 | 0.0 | 0.0 | 0.00 | 0.00 | 0.00 | 65 | 1010.3 |
| 20260506143030 | 70 | 279 | 0.0 | 0.0 | 0.00 | 0.00 | 0.00 | 67 | 1010.5 |
| 20260506141526 | 69 | 236 | 0.0 | 0.0 | 0.00 | 0.00 | 0.00 | 69 | 1010.2 |
| 20260506140023 | 67 | 142 | 0.0 | 0.0 | 0.00 | 0.00 | 0.00 | 71 | 1010.2 |
| 20260506134520 | 67 | 234 | 0.0 | 0.0 | 0.00 | 0.00 | 0.00 | 71 | 1010.5 |
| 20260506133020 | 67 | 166 | 0.0 | 0.0 | 0.00 | 0.00 | 0.00 | 71 | 1010.7 |
| 20260506131516 | 67 | 315 | 0.0 | 0.0 | 0.00 | 0.00 | 0.00 | 71 | 1010.7 |
| 20260506130017 | 66 | 267 | 0.0 | 0.0 | 0.00 | 0.00 | 0.00 | 72 | 1010.7 |
| 20260506124514 | 66 | 220 | 0.0 | 0.0 | 0.00 | 0.00 | 0.00 | 73 | 1010.4 |
| 20260506123014 | 65 | 271 | 0.0 | 0.0 | 0.00 | 0.00 | 0.00 | 74 | 1010.8 |
| 20260506121512 | 64 | 263 | 0.0 | 0.0 | 0.00 | 0.00 | 0.00 | 75 | 1010.9 |
| 20260506120011 | 64 | 322 | 0.0 | 0.0 | 0.00 | 0.00 | 0.00 | 75 | 1011.1 |
| 20260506114509 | 63 | 46 | 0.0 | 0.0 | 0.00 | 0.00 | 0.00 | 75 | 1011.2 |
| 20260506113009 | 63 | 215 | 0.0 | 0.0 | 0.00 | 0.00 | 0.00 | 76 | 1011.3 |
| 20260506111508 | 62 | 285 | 0.0 | 0.0 | 0.00 | 0.00 | 0.00 | 76 | 1011.4 |
| 20260506110007 | 62 | 319 | 0.0 | 0.0 | 0.00 | 0.00 | 0.00 | 76 | 1011.4 |
| 20260506104518 | 62 | 281 | 0.0 | 0.0 | 0.00 | 0.00 | 0.00 | 76 | 1011.3 |
| 20260506103007 | 62 | 214 | 0.0 | 0.0 | 0.00 | 0.00 | 0.00 | 76 | 1011.3 |
| 20260506101507 | 62 | 244 | 0.0 | 0.0 | 0.00 | 0.00 | 0.00 | 76 | 1011.3 |
| 20260506100002 | 62 | 259 | 0.0 | 0.0 | 0.00 | 0.00 | 0.00 | 75 | 1011.3 |
| 20260506094502 | 62 | 331 | 0.0 | 0.0 | 0.00 | 0.00 | 0.00 | 75 | 1011.1 |
| 20260506093100 | 62 | 254 | 0.0 | 0.0 | 0.00 | 0.00 | 0.00 | 74 | 1011.3 |
| 20260506091602 | 62 | 254 | 0.0 | 0.0 | 0.00 | 0.00 | 0.00 | 74 | 1011.0 |
| 20260506090058 | 62 | 320 | 0.0 | 0.0 | 0.00 | 0.00 | 0.00 | 73 | 1011.0 |
| 20260506084555 | 63 | 325 | 0.0 | 0.0 | 0.00 | 0.00 | 0.00 | 72 | 1011.0 |
| 20260506083054 | 63 | 298 | 0.0 | 0.0 | 0.00 | 0.00 | 0.00 | 71 | 1011.0 |
| 20260506081558 | 63 | 267 | 0.0 | 0.0 | 0.00 | 0.00 | 0.00 | 71 | 1011.0 |
| 20260506073050 | 64 | 246 | 0.0 | 0.0 | 0.00 | 0.00 | 0.00 | 68 | 1010.5 |
| 20260506071547 | 64 | 304 | 0.0 | 0.0 | 0.00 | 0.00 | 0.00 | 68 | 1010.3 |
| 20260506061541 | 64 | 293 | 0.0 | 0.0 | 0.00 | 0.00 | 0.00 | 66 | 1010.4 |